User: anonymous   Login
Location: Fort Frances
(48.6170°N, 93.4170°W)
Time: 23:49:49
(UTC-05:00)
Language:

Iridium 53 - Orbit

View from above orbital plane
View from above orbital plane
View from above satellite
View from above satellite

Ground track
Ground track

The orbit data is extracted from the following two-line orbital elements,

1 25173U 98010E   16209.36610674  .00000184  00000-0  58700-4 0  9994
2 25173  86.3994 126.1724 0002283  85.9979 274.1478 14.34216231965217
Epoch (UTC): 27 July 2016 08:47:11
Eccentricity: 0.0002283
inclination: 86.3994°
perigee height: 776 km
apogee height: 779 km
right ascension of ascending node: 126.1724°
argument of perigee: 85.9979°
revolutions per day: 14.34216231
mean anomaly at epoch: 274.1478°
orbit number at epoch: 96521

The dashed part of the orbit path shows where the satellite is in the earth's shadow,  

DLR